MDT,Max TemperatureF,Mean TemperatureF,Min TemperatureF,Max Dew PointF,MeanDew PointF,Min DewpointF,Max Humidity, Mean Humidity, Min Humidity, Max Sea Level PressureIn, Mean Sea Level PressureIn, Min Sea Level PressureIn, Max VisibilityMiles, Mean VisibilityMiles, Min VisibilityMiles, Max Wind SpeedMPH, Mean Wind SpeedMPH, Max Gust SpeedMPH,PrecipitationIn, CloudCover, Events, WindDirDegrees
2013-3-1,55,44,33,31,29,28,82,60,38,30.37,30.33,30.25,10,10,10,23,9,31,0.00,5,,249
2013-3-2,57,44,30,30,27,25,78,55,32,30.37,30.18,29.93,10,10,10,21,4,25,0.00,1,,257
2013-3-3,43,33,23,33,21,5,76,51,25,30.20,29.89,29.70,10,8,0,40,15,54,0.02,7,Fog-Snow,299
2013-3-4,29,21,13,16,11,7,73,56,39,30.47,30.40,30.23,10,9,4,21,7,26,T,5,Snow,315
2013-3-5,38,24,10,19,12,5,83,60,37,30.41,30.25,30.10,10,10,10,12,4,13,0.00,2,,286
2013-3-6,41,33,24,32,26,18,92,70,48,30.08,29.83,29.64,10,8,2,15,3,18,0.03,6,Snow,299
2013-3-7,48,37,25,30,24,14,100,64,28,30.12,29.96,29.76,10,6,0,16,5,21,0.00,2,,246
2013-3-8,50,36,21,20,15,7,77,49,20,30.10,30.03,29.93,10,10,10,14,3,17,0.00,0,,291
2013-3-9,47,36,24,21,18,14,68,50,31,30.33,30.23,30.06,10,10,10,18,8,24,0.00,1,,274
2013-3-10,53,43,32,27,18,13,64,43,21,30.38,30.25,30.09,10,10,10,23,11,31,0.00,3,,279
2013-3-11,43,34,25,25,21,17,75,58,41,30.40,30.23,30.09,10,10,10,29,13,37,0.00,6,,305
2013-3-12,51,36,20,28,21,16,88,62,36,30.40,30.26,30.12,10,10,10,18,5,24,0.00,5,,290
2013-3-13,62,49,36,29,27,22,64,44,23,30.19,30.16,30.12,10,10,10,22,6,28,0.00,4,,249
2013-3-14,62,47,31,29,28,26,82,55,27,30.25,30.13,29.99,10,10,10,12,3,18,0.00,1,,268
2013-3-15,57,46,35,30,25,20,64,45,26,30.08,30.02,29.95,10,10,10,35,12,46,0.00,1,,273
2013-3-16,55,46,36,28,23,18,60,42,24,30.06,29.89,29.67,10,10,10,18,8,23,0.00,3,,257
2013-3-17,39,28,17,28,19,12,73,54,35,30.08,29.78,29.56,10,8,0,35,14,46,0.02,6,Fog-Snow,289
2013-3-18,41,28,14,27,16,9,88,59,29,30.10,30.03,29.91,10,9,0,30,11,39,0.02,6,Fog-Snow,264
2013-3-19,46,36,26,18,10,0,68,42,16,30.34,30.25,30.12,10,10,10,18,8,23,0.00,0,,279
2013-3-20,61,43,25,34,21,10,70,48,26,30.12,29.77,29.55,10,10,9,32,9,41,T,5,Rain,257
2013-3-21,42,35,27,21,13,5,56,40,23,30.03,29.87,29.68,10,10,9,35,15,46,T,3,Snow,273
2013-3-22,33,26,19,15,11,9,65,52,39,30.35,30.14,30.01,10,10,10,22,12,26,0.00,5,,318
2013-3-23,33,22,11,20,10,-1,76,52,27,30.46,30.39,30.18,10,9,2,17,5,20,T,5,Snow,256
2013-3-24,40,26,11,12,6,0,80,50,20,30.48,30.40,30.33,10,10,10,12,3,15,0.00,0,,275
2013-3-25,49,32,14,14,8,2,62,38,14,30.33,30.22,30.09,10,10,10,20,4,24,0.00,1,,276
2013-3-26,55,42,28,18,16,13,53,37,20,30.10,30.03,29.95,10,10,10,17,3,23,0.00,4,,304
2013-3-27,59,41,23,29,21,17,69,47,24,30.11,30.05,29.99,10,10,10,18,3,29,0.00,4,,270
2013-3-28,61,46,30,35,30,26,78,53,28,30.15,30.09,30.01,10,10,10,17,5,24,0.00,4,,244
2013-3-29,59,48,36,34,31,26,79,57,35,30.21,30.16,30.10,10,10,10,23,7,29,0.00,6,,270
2013-3-30,60,47,33,30,26,21,75,49,23,30.29,30.21,30.12,10,10,10,18,8,22,0.00,3,,260
2013-3-31,59,45,31,27,24,23,64,45,25,30.17,30.12,30.09,10,10,10,18,6,25,0.00,1,,316